Powrót do katalogu

YZ-1 R/B

AktywnyMEO
NORAD 44544·ROCKET BODY·🇨🇳 China

Wystrzelony Sep 22, 2019 z Xichang Satellite Launch Center

Loading…

Następne Przeloty (najbliższe 24 godziny)

TLE

ŚwieżeSource: Space-Track

Epoka: Sep 14, 2026, 06:33 UTC

1 44544U 19061C   26257.27357098  .00000011  00000-0  00000+0 0  9992
2 44544  54.4341 185.7160 0034722 257.5424 102.0708  1.80432533 45993

Śledź YZ-1 R/B w czasie rzeczywistym z AllMySat

Download on the App Store